Regional Weather Roundup
Issued by NWS Newport/Morehead, NC

Current Version | Previous Version | Text Only | Print | Product List | Glossary Off
Versions: 1 2 3 4 5 6 7 8 9 10 11 12 13 14 15 16 17 18 19 20 21 22 23 24 25 26 27 28 29 30 31 32 33 34 35 36 37 38 39 40 41 42 43 44 45 46 47 48 49 50
000 ASUS42 KMHX 040925 RWRMHX WEATHER ROUNDUP FOR EASTERN NORTH CAROLINA NATIONAL WEATHER SERVICE NEWPORT/MOREHEAD CITY NC 500 AM EDT WED MAY 04 2016 NOTE: "FAIR" INDICATES FEW OR NO CLOUDS BELOW 12,000 FEET WITH NO SIGNIFICANT WEATHER AND/OR OBSTRUCTIONS TO VISIBILITY NCZ015>017-031-032-045>047-102-103-041000- NORTH COAST CITY SKY/WX TMP DP RH WIND PRES REMARKS EDENTON CLOUDY 64 64 100 CALM 29.68S ELIZABETH CITY CLOUDY 63 62 97 CALM 29.67S KITTY HAWK CLOUDY 64 62 96 CALM 29.67R MANTEO NOT AVBL $$ NCZ045>047-081-094-103-104-041000- CENTRAL COAST CITY SKY/WX TMP DP RH WIND PRES REMARKS FRISCO CLOUDY 67 66 97 CALM 29.67F SWANQUARTER NOT AVBL $$ NCZ095-097-098-100-101-041000- SOUTHERN COAST CITY SKY/WX TMP DP RH WIND PRES REMARKS BEAUFORT PTCLDY 66 64 93 CALM 29.67S CEDAR ISLAND NOT AVBL JACKSONVILLE CLEAR 66 66 100 SW3 29.67S FOG PINEY ISLAND NOT AVBL WILMINGTON PTCLDY 68 62 81 SW10 29.69R $$ NCZ011>013-027>030-043-044-078>080-089-090>093-098-041000- COASTAL PLAIN CITY SKY/WX TMP DP RH WIND PRES REMARKS AHOSKIE CLOUDY 59 58 98 N3 N/A FOG CLINTON CLOUDY 65 64 97 CALM 29.69R ELIZABETHTOWN CLOUDY 68 68 100 CALM 29.69R GOLDSBORO MOCLDY 62 62 100 CALM 29.66S GREENVILLE CLOUDY 63 63 100 CALM 29.70S HAVELOCK PTCLDY 63 62 97 S3 29.68F KENANSVILLE CLOUDY 65 62 93 CALM 29.69R KINSTON PTCLDY 63 62 97 CALM 29.68F NEW BERN CLEAR 63 60 90 SW3 29.68F RICHLANDS CLOUDY 66 65 96 CALM 29.68R ROCKY MOUNT MOCLDY 61 61 100 CALM 29.67S WASHINGTON MOCLDY 62 61 97 CALM 29.67S WHITEVILLE NOT AVBL $$ AMZ130-135-150-152-154-156-158-170-250-252-270-ANZ085-086-088-633-658-670-041000- MARINE OBSERVATIONS STATION/POSITION TIME TEMP WIND PRES WAVE SWELL AIR SEA DIR/SP/G HT/PER HT/PER (UTC) (F) (DEG/KT/KT) (MB) (FT/S) (FT/S) CHESAPEAKE LIGHT 0900 54 30/ 17/ 19 1005.7 64 E VA BEACH 0850 55 54 140/ 4/ 6 1004.7 4/ 7 3/ 7 DUCK NOT AVBL 2 E DUCK 0811 59 N/A 2/ 7 OREGON INLET 0900 68 71 200/ 6/ 7 1004.5 13E OREGON INLT 0900 61 N/A 4/ 7 3/ 7 HATTERAS CG 0900 67 69 240/ 4/ 5 1004.1 DIAMOND BUOY 0850 69 72 310/ 12/ 16 1004.6 4/ 7 3/ 7 CAPE LOOKOUT 0900 68 240/ 6/ 8 1004.5 BEAUFORT LAB 0900 68 67 190/ 1/ 1 1003.8 30 SE NEW RVR IN 0825 72 N/A 6/ 7 27 SE WRIGHTSVLE 0908 72 72 240/ 14/ 17 N/A 5 SE WRIGHTSVLE 0908 70 69 250/ 16/ 19 1005.8 225 S CAPE HAT 0850 73 74 210/ 14/ 17 1008.5 5/ 7 41 SE CHARLESTON 0850 73 75 170/ 12/ 14 1005.8 3/ 7 2/ 7 $$

USA.gov is the U.S. government's official web portal to all federal, state and local government web resources and services.